[[{"header":{"parameterUnit":"m.s-1","parameterCategory":1,"la1":30.2991,"la2":30.254,"lo1":-89.0895,"lo2":-89.0444,"dy":0.0017,"dx":0.0017,"nx":28,"ny":28,"refTime":"2025-11-25T03:00:00:Z","depth":0,"parameterNumber":2,"parameterNumberName":"U-component_of_WINDS"},"data":[0,0,0,0,0,0,0,0,0,0,0,0,0,0,0,0,0,0,0,0,0,0,0,0,0,0,0,0,0,0,0,0,0,0,0,0,0,0,0,0,0,0,0,0,0,0,0,0,0,0,0,0,0,0,0,0,0,0,-1.2106,-1.2106,0,-1.2085,-1.2085,-1.2085,-1.2085,-1.2085,-1.2086,-1.2086,-1.2062,-1.2062,-1.2061,0,0,0,0,0,0,0,0,0,0,0,0,0,-1.2144,-1.2143,-1.2106,-1.2106,-1.2105,-1.2085,-1.2085,-1.2085,-1.2085,-1.2085,-1.2086,-1.2086,-1.2063,-1.2062,-1.2061,0,0,0,0,0,0,0,0,0,0,0,0,0,-1.2126,-1.2143,-1.2106,-1.2103,-1.2103,-1.2085,-1.2085,-1.2085,-1.2085,-1.2085,-1.2086,-1.2086,-1.2063,-1.2062,-1.206,-1.2044,0,0,-1.2056,-1.2056,0,0,0,0,0,0,0,0,-1.2127,-1.2124,-1.2104,-1.2103,-1.2103,-1.2088,-1.209,-1.2071,-1.2085,-1.2092,-1.2086,-1.2086,-1.207,-1.2069,-1.2064,-1.2042,-1.2041,-1.2056,-1.2055,-1.2055,-1.2054,0,0,0,0,0,0,0,-1.2128,-1.2125,-1.2098,-1.2103,-1.2103,-1.2102,-1.21,-1.2086,-1.2079,-1.2091,-1.2091,-1.2089,-1.207,-1.2065,-1.2063,-1.2041,-1.2056,-1.2055,-1.2054,-1.2054,-1.2005,-1.2005,0,0,0,0,0,0,-1.213,-1.2126,-1.2098,-1.2097,-1.2116,-1.2101,-1.2099,-1.2092,-1.2079,-1.2077,-1.2088,-1.2089,-1.2067,-1.2065,-1.2062,-1.2042,-1.2055,-1.2054,-1.2053,-1.2006,-1.2005,-1.2005,0,0,0,0,0,0,-1.2131,-1.2127,-1.2099,-1.2112,-1.2108,-1.21,-1.2093,-1.2092,-1.2086,-1.2077,-1.2075,-1.2084,-1.2067,-1.2064,-1.2048,-1.2041,-1.2053,-1.2052,-1.2006,-1.2006,-1.2005,-1.2,0,0,0,0,0,0,-1.2132,-1.2128,-1.2122,-1.2111,-1.2107,-1.2086,-1.2092,-1.2091,-1.2084,-1.2085,-1.2073,-1.2071,-1.2067,-1.205,-1.2047,-1.2039,-1.2051,-1.2007,-1.2006,-1.2005,-1.2001,-1.2,-1.1998,0,0,0,0,0,-1.2133,-1.2121,-1.2121,-1.2118,-1.21,-1.2086,-1.2083,-1.208,-1.2084,-1.2077,-1.2071,-1.2072,-1.2042,-1.2049,-1.2045,-1.2037,-1.2007,-1.2006,-1.2005,-1.2002,-1.2,-1.1998,0,0,0,0,0,0,-1.2129,-1.2119,-1.212,-1.2104,-1.2096,-1.2086,-1.2077,-1.2078,-1.2068,-1.2068,-1.2064,-1.2061,-1.2045,-1.2039,-1.2047,-1.202,-1.2025,-1.2023,-1.2024,-1.2022,-1.2021,-1.2022,-1.205,0,0,0,0,0,-1.2127,-1.2117,-1.2108,-1.2095,-1.2091,-1.2085,-1.2079,-1.2077,-1.2068,-1.2064,-1.2057,-1.2048,-1.2037,-1.2029,-1.2018,-1.2001,-1.1998,-1.1993,-1.1992,-1.1991,-1.1989,-1.1979,-1.1977,-1.2001,-1.2001,-1.2001,0,0,-1.2121,-1.2114,-1.2108,-1.2094,-1.2088,-1.2077,-1.2082,-1.207,-1.2062,-1.2062,-1.2047,-1.2042,-1.2031,-1.2014,-1.2007,-1.2009,-1.1982,-1.1989,-1.1988,-1.1987,-1.1978,-1.1975,-1.1973,-1.2,-1.2,-1.2001,0,0,-1.2105,-1.2099,-1.2087,-1.2081,-1.2071,-1.2068,-1.2065,-1.2055,-1.2052,-1.2037,-1.2036,-1.2027,-1.2007,-1.2,-1.1993,-1.1976,-1.1975,-1.1972,-1.1964,-1.1955,-1.1953,-1.1951,-1.1945,-1.1942,-1.197,-1.197,-1.197,0,-1.2099,-1.2083,-1.2081,-1.207,-1.2063,-1.2064,-1.2052,-1.2045,-1.2032,-1.2028,-1.2031,-1.2007,-1.2,-1.1982,-1.1978,-1.1972,-1.1969,-1.1973,-1.1954,-1.1952,-1.195,-1.1944,-1.1941,-1.197,-1.197,-1.197,-1.197,0,-1.2076,-1.2065,-1.2057,-1.2045,-1.2038,-1.2026,-1.2022,-1.2015,-1.2014,-1.201,-1.1994,-1.1986,-1.1974,-1.1969,-1.1968,-1.1951,-1.1952,-1.1955,-1.196,-1.1948,-1.1941,-1.1939,-1.197,-1.197,-1.197,-1.197,0,0,-1.2056,-1.2044,-1.2041,-1.2036,-1.2026,-1.2017,-1.2006,-1.1994,-1.1988,-1.1979,-1.1969,-1.1953,-1.1956,-1.1948,-1.1946,-1.1938,-1.1924,-1.1941,-1.1941,-1.1938,-1.1905,-1.1903,-1.19,-1.1924,-1.1924,-1.1924,-1.1906,0,-1.2039,-1.2019,-1.2017,-1.1998,-1.1988,-1.1989,-1.1979,-1.1971,-1.1967,-1.1958,-1.1953,-1.1942,-1.1946,-1.1941,-1.1933,-1.1928,-1.1917,-1.1929,-1.1914,-1.1914,-1.1916,-1.1897,-1.1895,-1.1878,-1.1903,-1.1903,-1.1903,0,-1.2016,-1.2007,-1.1988,-1.198,-1.1976,-1.1967,-1.1956,-1.1948,-1.1939,-1.1937,-1.1929,-1.1928,-1.1915,-1.1922,-1.1904,-1.1912,-1.1906,-1.1903,-1.1902,-1.19,-1.1907,-1.1894,-1.1873,-1.1871,-1.1899,-1.1899,-1.19,0,-1.2003,-1.1987,-1.1973,-1.1969,-1.1959,-1.1953,-1.1948,-1.194,-1.1933,-1.1924,-1.192,-1.1909,-1.1903,-1.1895,-1.1891,-1.1896,-1.1873,-1.1879,-1.187,-1.187,-1.1865,-1.1865,-1.1842,-1.1862,-1.1862,-1.1862,-1.1862,0,-1.1983,-1.1972,-1.1967,-1.1959,-1.1946,-1.1944,-1.1931,-1.1926,-1.1919,-1.191,-1.191,-1.1901,-1.1896,-1.1886,-1.1883,-1.1869,-1.1866,-1.1863,-1.1863,-1.1863,-1.1863,-1.1859,-1.186,-1.1861,-1.1861,-1.1862,-1.1862,0,-1.1966,-1.1963,-1.1949,-1.1941,-1.1939,-1.1929,-1.1922,-1.1914,-1.191,-1.1898,-1.1896,-1.189,-1.1878,-1.1874,-1.1859,-1.1857,-1.1841,-1.1841,-1.1844,-1.1843,-1.1835,-1.1835,-1.1807,-1.1803,-1.1826,-1.1826,-1.1826,0,-1.1954,-1.1945,-1.1937,-1.1931,-1.1926,-1.1917,-1.191,-1.1908,-1.1901,-1.1891,-1.1884,-1.1873,-1.1864,-1.1845,-1.1839,-1.1828,-1.1828,-1.1819,-1.1826,-1.1827,-1.1827,-1.1828,-1.1827,-1.1817,-1.1817,-1.1817,-1.1817,0,-1.1932,-1.1931,-1.1923,-1.1913,-1.1906,-1.1898,-1.1891,-1.1886,-1.1882,-1.1875,-1.1864,-1.1857,-1.1843,-1.1831,-1.182,-1.1815,-1.1815,-1.1815,-1.1812,-1.1812,-1.1814,-1.1813,-1.184,-1.1815,-1.1815,-1.1815,-1.1815,-1.1816,-1.1917,-1.1909,-1.1902,-1.1893,-1.1887,-1.188,-1.1872,-1.1868,-1.1859,-1.1848,-1.1847,-1.1835,-1.1827,-1.1812,-1.1806,-1.1797,-1.1799,-1.1795,-1.1794,-1.1793,-1.1792,-1.1816,-1.1794,-1.1795,-1.1795,-1.1795,-1.1795,0,-1.1895,-1.1891,-1.1882,-1.1872,-1.1865,-1.1867,-1.1859,-1.1852,-1.1841,-1.1834,-1.1826,-1.1813,-1.1802,-1.1796,-1.1785,-1.1778,-1.1778,-1.1775,-1.1775,-1.1774,-1.1791,-1.1794,-1.1776,-1.1776,-1.1776,-1.1776,-1.1776,-1.1776,-1.1883,-1.187,-1.1868,-1.1852,-1.1848,-1.1837,-1.1832,-1.1826,-1.182,-1.1806,-1.1798,-1.1794,-1.1787,-1.1776,-1.1766,-1.1764,-1.176,-1.1757,-1.1756,-1.1771,-1.1773,-1.1775,-1.1778,-1.1756,-1.1756,-1.174,-1.174,-1.174]},{"header":{"parameterUnit":"m.s-1","parameterCategory":1,"la1":30.2991,"la2":30.254,"lo1":-89.0895,"lo2":-89.0444,"dy":0.0017,"dx":0.0017,"nx":28,"ny":28,"refTime":"2025-11-25T03:00:00:Z","depth":0,"parameterNumber":3,"parameterNumberName":"V-component_of_WINDS"},"data":[0,0,0,0,0,0,0,0,0,0,0,0,0,0,0,0,0,0,0,0,0,0,0,0,0,0,0,0,0,0,0,0,0,0,0,0,0,0,0,0,0,0,0,0,0,0,0,0,0,0,0,0,0,0,0,0,0,0,5.4949,5.495,0,5.5045,5.5046,5.5047,5.5014,5.5012,5.501,5.5008,5.5105,5.5109,5.5114,0,0,0,0,0,0,0,0,0,0,0,0,0,5.4737,5.4741,5.4949,5.495,5.4951,5.5045,5.5046,5.5048,5.5014,5.5012,5.5009,5.5007,5.5103,5.5109,5.5114,0,0,0,0,0,0,0,0,0,0,0,0,0,5.4831,5.4742,5.4948,5.4946,5.4946,5.5045,5.5046,5.5048,5.5015,5.5012,5.5008,5.5005,5.5102,5.5108,5.5115,5.5221,0,0,5.5136,5.5139,0,0,0,0,0,0,0,0,5.4825,5.4838,5.4945,5.4946,5.4947,5.5014,5.5007,5.5106,5.5016,5.4989,5.5008,5.5004,5.5077,5.5086,5.5111,5.5226,5.523,5.5137,5.5141,5.5144,5.5146,0,0,0,0,0,0,0,5.4819,5.4834,5.4987,5.4947,5.4948,5.494,5.495,5.5026,5.505,5.4991,5.4989,5.5001,5.5077,5.5104,5.5113,5.5231,5.5136,5.5142,5.5147,5.5149,5.5443,5.5446,0,0,0,0,0,0,5.4812,5.4829,5.4984,5.499,5.4877,5.4947,5.4958,5.4996,5.5049,5.5054,5.5003,5.4999,5.5094,5.5105,5.5116,5.5247,5.5144,5.515,5.5154,5.5439,5.5444,5.5448,0,0,0,0,0,0,5.4807,5.4826,5.498,5.4909,5.4928,5.4954,5.4997,5.4999,5.5027,5.5058,5.5062,5.5027,5.5092,5.5107,5.5197,5.525,5.5153,5.5159,5.5435,5.5441,5.5446,5.5509,0,0,0,0,0,0,5.4802,5.4825,5.4865,5.491,5.4932,5.5058,5.5,5.5004,5.5039,5.5034,5.5081,5.5086,5.5091,5.5187,5.5203,5.5258,5.5165,5.543,5.5437,5.5444,5.5502,5.5516,5.5527,0,0,0,0,0,5.4794,5.4877,5.4867,5.4886,5.4982,5.5061,5.5074,5.5078,5.5043,5.5084,5.5105,5.5084,5.5241,5.5196,5.5215,5.5272,5.5427,5.5435,5.5443,5.5496,5.5513,5.5527,0,0,0,0,0,0,5.4835,5.4883,5.4872,5.4972,5.5013,5.5055,5.5107,5.5095,5.5146,5.5139,5.5142,5.5153,5.5247,5.5268,5.5216,5.538,5.5329,5.5341,5.5363,5.5379,5.5391,5.5385,5.517,0,0,0,0,0,5.4856,5.4917,5.4954,5.5039,5.5061,5.5081,5.5115,5.5115,5.5158,5.5175,5.5202,5.5244,5.5303,5.5342,5.5397,5.5505,5.5516,5.5554,5.5566,5.5577,5.5588,5.565,5.5668,5.5475,5.5475,5.5475,0,0,5.49,5.4933,5.4971,5.5049,5.508,5.5144,5.5095,5.5163,5.5211,5.5185,5.5273,5.5294,5.5342,5.5442,5.5487,5.5462,5.5644,5.5587,5.5595,5.5601,5.5661,5.5679,5.5695,5.5481,5.548,5.5479,0,0,5.5012,5.5042,5.5118,5.5152,5.5202,5.5216,5.5234,5.5279,5.5294,5.5382,5.5365,5.5422,5.5522,5.5558,5.5589,5.572,5.5704,5.5738,5.5805,5.5866,5.5881,5.5895,5.5945,5.5962,5.5749,5.5749,5.5749,0,5.506,5.5155,5.5158,5.523,5.5266,5.5247,5.5325,5.5358,5.5423,5.5449,5.542,5.555,5.558,5.569,5.5723,5.5747,5.577,5.5733,5.5879,5.5892,5.5905,5.5953,5.5971,5.5753,5.5753,5.5752,5.5752,0,5.5213,5.5279,5.5334,5.5401,5.5443,5.5517,5.5533,5.5576,5.5573,5.559,5.5682,5.5718,5.5783,5.5809,5.5806,5.592,5.5904,5.5877,5.5826,5.5927,5.5973,5.599,5.5759,5.5757,5.5756,5.5755,0,0,5.5352,5.5422,5.5443,5.5474,5.553,5.5582,5.5656,5.5721,5.5759,5.5805,5.587,5.5957,5.5935,5.597,5.5971,5.6024,5.613,5.5991,5.5993,5.6019,5.6263,5.6285,5.6305,5.612,5.6123,5.6126,5.626,0,5.5471,5.5603,5.5611,5.5731,5.5794,5.5779,5.5845,5.5886,5.5905,5.5962,5.5982,5.6046,5.6009,5.6031,5.6083,5.6106,5.618,5.6097,5.6182,5.6184,5.6172,5.6328,5.6351,5.6475,5.6277,5.628,5.6282,0,5.5627,5.5681,5.5808,5.5859,5.5886,5.5945,5.6007,5.6061,5.611,5.612,5.6162,5.6157,5.6235,5.6181,5.6291,5.6234,5.627,5.6287,5.6292,5.6301,5.6241,5.6345,5.6515,5.6535,5.6309,5.6307,5.6305,0,5.572,5.5824,5.5915,5.5942,5.6003,5.6045,5.6072,5.6117,5.6158,5.6212,5.6239,5.6301,5.6336,5.6384,5.6397,5.6356,5.6508,5.6454,5.652,5.6521,5.6554,5.6552,5.6735,5.6573,5.6573,5.6572,5.6572,0,5.5854,5.5933,5.5959,5.6014,5.6104,5.6112,5.6201,5.6225,5.6266,5.6328,5.6318,5.6376,5.6388,5.6449,5.6459,5.6551,5.6565,5.6577,5.6579,5.6579,5.6578,5.6604,5.6596,5.6577,5.6576,5.6575,5.6574,0,5.5973,5.5993,5.6091,5.6142,5.6157,5.6221,5.6264,5.6319,5.6337,5.6416,5.6435,5.6464,5.6536,5.6553,5.6637,5.6645,5.6754,5.6746,5.6738,5.6739,5.6805,5.68,5.7012,5.7042,5.6859,5.686,5.6862,0,5.6057,5.6119,5.6177,5.6218,5.6248,5.6314,5.6356,5.6368,5.6412,5.6474,5.6522,5.6593,5.665,5.6766,5.6795,5.6861,5.6857,5.6927,5.6866,5.6866,5.6862,5.6859,5.6867,5.6939,5.6941,5.6942,5.6943,0,5.6207,5.6215,5.6276,5.6342,5.6393,5.6445,5.6495,5.6529,5.6548,5.6599,5.6673,5.6718,5.6807,5.6878,5.6946,5.6974,5.6964,5.6962,5.6982,5.6984,5.6978,5.6985,5.6773,5.6958,5.6956,5.6955,5.6954,5.6954,5.6314,5.6369,5.642,5.649,5.6529,5.6577,5.6632,5.6659,5.6722,5.6796,5.6799,5.6881,5.6931,5.7021,5.7053,5.7118,5.7097,5.7124,5.7132,5.7139,5.7147,5.6966,5.713,5.713,5.7129,5.7129,5.7129,0,5.6466,5.6499,5.6563,5.6634,5.669,5.6676,5.6731,5.6779,5.6852,5.69,5.6958,5.7045,5.7116,5.7152,5.7222,5.7268,5.7265,5.7286,5.7284,5.7292,5.716,5.7138,5.7288,5.7288,5.7288,5.7288,5.7288,5.7287,5.6551,5.6646,5.6661,5.6775,5.6808,5.6889,5.6923,5.6968,5.7007,5.7106,5.7165,5.7188,5.7233,5.7307,5.7372,5.7381,5.7409,5.7433,5.744,5.7316,5.73,5.7285,5.7264,5.7438,5.7439,5.7567,5.7568,5.7569]}]]